This is the latest recevied weather packets stored in our database for station/object EA2AFZ-W. If no packets are shown the sender has not sent any weather packets the latest 10 day(s).
| Time | Temp. | Humidity | Pressure | Rain* | Wind** | Luminosity | Snow |
|---|---|---|---|---|---|---|---|
| 1777907716 | 15° C | 60% | 1014 hPa | 0 mm | - | - | - |
| 1777905915 | 14.44° C | 62% | 1014 hPa | 0 mm | - | - | - |
| 1777904112 | 14.44° C | 64% | 1014 hPa | 0 mm | - | - | - |
| 1777902310 | 14.44° C | 65% | 1014 hPa | 0 mm | - | - | - |
| 1777900507 | 13.89° C | 66% | 1014 hPa | 0 mm | - | - | - |
| 1777898766 | 13.89° C | 65% | 1014 hPa | 0 mm | - | - | - |
| 1777896964 | 13.89° C | 63% | 1014 hPa | 0 mm | - | - | - |
| 1777895161 | 13.89° C | 59% | 1014 hPa | 0 mm | - | - | - |
| 1777893359 | 13.89° C | 66% | 1014 hPa | 0 mm | - | - | - |
| 1777891556 | 13.89° C | 68% | 1015 hPa | 0 mm | - | - | - |
| 1777889754 | 13.33° C | 71% | 1014 hPa | 0 mm | - | - | - |
| 1777887952 | 12.78° C | 74% | 1014 hPa | 0 mm | - | - | - |
| 1777886151 | 12.22° C | 80% | 1014 hPa | 0 mm | - | - | - |
| 1777884349 | 12.22° C | 82% | 1014 hPa | 0 mm | - | - | - |
| 1777882546 | 12.22° C | 87% | 1014 hPa | 0 mm | - | - | - |
| 1777880744 | 12.22° C | 87% | 1014 hPa | 0 mm | - | - | - |
| 1777878942 | 12.22° C | 87% | 1013 hPa | 0 mm | - | - | - |
| 1777877139 | 12.78° C | 88% | 1014 hPa | 0 mm | - | - | - |
| 1777875337 | 12.22° C | 89% | 1013 hPa | 0 mm | - | - | - |
| 1777873535 | 12.22° C | 88% | 1013 hPa | 0 mm | - | - | - |
| 1777871732 | 12.78° C | 87% | 1013 hPa | 0 mm | - | - | - |
| 1777869931 | 13.33° C | 87% | 1013 hPa | 0 mm | - | - | - |
| 1777868128 | 13.33° C | 87% | 1013 hPa | 0 mm | - | - | - |
| 1777866327 | 13.33° C | 87% | 1013 hPa | 0 mm | - | - | - |
| 1777864524 | 13.33° C | 87% | 1013 hPa | 0 mm | - | - | - |
* Rain latest hour (hover to see other rain measurements)
** Current wind speed in m/s (hover to see current wind gust speed)